Troy, MI

5:58 PM EDT on August 23, 2017 (GMT -0400)
Troy

Weather History for KVLL - October, 2013

Change the Weather History Date:

Saturday, October 19, 2013

  Actual Average (KDET) Record (KDET)
Temperature  
Mean Temperature 46 °F -  
Max Temperature 50 °F 56 °F 85 °F (1953)
Min Temperature 43 °F 42 °F 24 °F (1972)
Degree Days  
Heating Degree Days 18    
Moisture  
Dew Point 41 °F    
Average Humidity 81    
Maximum Humidity 91    
Minimum Humidity 66    
Precipitation  
Precipitation 0.00 in - - ()
Sea Level Pressure  
Sea Level Pressure 29.84 in    
Wind  
Wind Speed 6 mph (WSW)    
Max Wind Speed 12 mph    
Max Gust Speed 24 mph    
Visibility 9 miles    
Events Rain    
Averages and records for this station are not official NWS values.
T = Trace of Precipitation, MM = Missing Value Source: NWS Daily Summary

Daily Weather History Graph

Daily Weather History Graph

Search for Another Location

Airport or City:

Trip Planner

Search our weather history database for the weather conditions in past years. The results will help you decide how hot, cold, wet, or windy it might be!

Date:

Astronomy

Oct. 19, 2013 Rise Set
Actual Time 7:50 AM EDT 6:43 PM EDT
Civil Twilight 7:22 AM EDT 7:12 PM EDT
Nautical Twilight 6:49 AM EDT 7:45 PM EDT
Astronomical Twilight 6:16 AM EDT 8:17 PM EDT
Moon 7:09 PM EDT (10/19) 8:28 AM EDT (10/19)
Length of Visible Light 11h 50m
Length of Day
10h 53m
Waxing Gibbous, 99% of the Moon is Illuminated
Oct 19
Waxing Gibbous
Oct 26
Last Quarter
Nov 3
New
Nov 10
First Quarter
Nov 17
Full

Hourly Weather History & Observations

Time (EDT) Temp. Windchill Dew Point Humidity Pressure Visibility Wind Dir Wind Speed Gust Speed Precip Events Conditions
12:14 AM 49.5 °F - 40.6 °F 72% 29.92 in 10.0 mi SW 4.6 mph - N/A   Clear
12:35 AM 49.5 °F - 40.6 °F 72% 29.92 in 10.0 mi WSW 4.6 mph - N/A   Clear
12:54 AM 49.1 °F - 41.0 °F 74% 29.91 in 10.0 mi SW 6.9 mph - N/A   Clear
1:15 AM 48.6 °F - 40.6 °F 74% 29.91 in 10.0 mi WSW 4.6 mph - N/A   Clear
1:34 AM 48.0 °F - 41.0 °F 77% 29.90 in 10.0 mi Calm Calm - N/A   Clear
1:54 AM 47.3 °F - 41.2 °F 79% 29.90 in 10.0 mi SW 3.5 mph - N/A   Clear
2:14 AM 46.6 °F - 41.0 °F 81% 29.90 in 10.0 mi SW 5.8 mph - N/A   Clear
2:34 AM 46.4 °F 43.5 °F 41.0 °F 81% 29.89 in 10.0 mi SSW 5.8 mph - N/A   Clear
2:54 AM 46.0 °F 43.9 °F 41.0 °F 83% 29.89 in 10.0 mi SW 4.6 mph - N/A   Clear
3:14 AM 45.9 °F 42.3 °F 41.0 °F 83% 29.89 in 10.0 mi SW 6.9 mph - N/A   Clear
3:35 AM 45.5 °F 41.8 °F 40.6 °F 83% 29.89 in 10.0 mi SW 6.9 mph - N/A   Clear
3:54 AM 45.1 °F 41.4 °F 40.6 °F 84% 29.88 in 10.0 mi SW 6.9 mph - N/A   Clear
4:15 AM 45.0 °F 41.2 °F 40.5 °F 84% 29.89 in 10.0 mi SW 6.9 mph - N/A   Clear
4:34 AM 45.0 °F 41.2 °F 40.5 °F 84% 29.89 in 10.0 mi WSW 6.9 mph - N/A   Clear
4:55 AM 44.8 °F 41.6 °F 40.3 °F 84% 29.88 in 10.0 mi WSW 5.8 mph - N/A   Scattered Clouds
5:14 AM 44.6 °F 42.2 °F 40.3 °F 85% 29.87 in 10.0 mi SW 4.6 mph - N/A   Scattered Clouds
5:34 AM 44.6 °F 41.4 °F 40.3 °F 85% 29.87 in 10.0 mi SW 5.8 mph - N/A   Mostly Cloudy
5:55 AM 44.6 °F 42.2 °F 40.1 °F 84% 29.86 in 10.0 mi SSW 4.6 mph - N/A   Overcast
6:14 AM 45.0 °F 41.8 °F 40.3 °F 84% 29.86 in 10.0 mi SW 5.8 mph - N/A   Overcast
6:35 AM 45.0 °F 41.8 °F 40.3 °F 84% 29.86 in 10.0 mi SW 5.8 mph - N/A   Overcast
6:54 AM 45.0 °F 41.2 °F 40.6 °F 85% 29.85 in 7.0 mi SW 6.9 mph - N/A Rain Rain
7:15 AM 44.8 °F 42.4 °F 41.0 °F 87% 29.85 in 7.0 mi WSW 4.6 mph - N/A Rain Light Rain
7:34 AM 44.6 °F 42.2 °F 41.2 °F 88% 29.85 in 5.0 mi SW 4.6 mph - N/A Rain Light Rain
7:55 AM 44.2 °F 41.0 °F 41.0 °F 88% 29.85 in 5.0 mi SW 5.8 mph - N/A Rain Light Rain
8:15 AM 44.4 °F 41.2 °F 41.4 °F 89% 29.85 in 3.0 mi SW 5.8 mph - N/A Rain Light Rain
8:34 AM 44.2 °F 41.0 °F 41.5 °F 90% 29.85 in 3.0 mi SW 5.8 mph - N/A Rain Light Rain
8:55 AM 44.2 °F 41.8 °F 41.7 °F 91% 29.85 in 3.0 mi SW 4.6 mph - N/A Rain Light Rain
9:54 AM 44.8 °F 42.4 °F 42.4 °F 91% 29.84 in 3.0 mi WSW 4.6 mph - N/A   Drizzle
10:14 AM 45.5 °F 43.2 °F 43.0 °F 91% 29.83 in 3.0 mi WSW 4.6 mph - N/A Rain Light Rain
10:34 AM 45.9 °F 43.6 °F 43.3 °F 91% 29.82 in 5.0 mi WSW 4.6 mph - N/A Rain Light Rain
10:54 AM 45.9 °F 42.9 °F 42.8 °F 89% 29.82 in 7.0 mi WSW 5.8 mph - N/A Rain Rain
11:14 AM 45.7 °F 42.0 °F 42.1 °F 87% 29.82 in 7.0 mi SW 6.9 mph - N/A Rain Light Rain
11:35 AM 45.5 °F 41.3 °F 41.9 °F 87% 29.82 in 10.0 mi SW 8.1 mph - N/A Rain Light Rain
11:54 AM 45.5 °F 42.5 °F 42.3 °F 88% 29.81 in 5.0 mi WSW 5.8 mph - N/A Rain Light Rain
12:14 PM 45.5 °F 43.2 °F 42.1 °F 88% 29.81 in 7.0 mi SW 4.6 mph - N/A Rain Light Rain
12:35 PM 45.5 °F 41.3 °F 42.3 °F 88% 29.80 in 7.0 mi WSW 8.1 mph - N/A Rain Light Rain
12:54 PM 45.7 °F 41.5 °F 42.6 °F 89% 29.80 in 7.0 mi SW 8.1 mph - N/A Rain Light Rain
1:15 PM 46.2 °F 43.3 °F 42.8 °F 88% 29.79 in 7.0 mi WSW 5.8 mph - N/A Rain Light Rain
1:34 PM 46.4 °F 42.9 °F 42.8 °F 87% 29.78 in 7.0 mi WSW 6.9 mph - N/A Rain Rain
1:55 PM 46.4 °F 43.5 °F 43.0 °F 88% 29.77 in 7.0 mi WSW 5.8 mph - N/A Rain Rain
2:14 PM 46.2 °F 40.8 °F 42.1 °F 85% 29.78 in 5.0 mi West 11.5 mph 24.2 mph N/A Rain Rain
2:34 PM 46.0 °F 42.5 °F 41.0 °F 83% 29.77 in 7.0 mi West 6.9 mph - N/A Rain Light Rain
2:54 PM 47.3 °F - 42.3 °F 83% 29.77 in 10.0 mi WSW 6.9 mph - N/A   Overcast
3:14 PM 48.6 °F - 41.9 °F 78% 29.76 in 10.0 mi WSW 8.1 mph - N/A   Overcast
3:34 PM 49.5 °F - 42.6 °F 77% 29.76 in 10.0 mi West 8.1 mph - N/A   Overcast
3:54 PM 50.4 °F - 42.3 °F 74% 29.76 in 10.0 mi West 10.4 mph - N/A   Mostly Cloudy
4:15 PM 50.4 °F - 40.3 °F 68% 29.77 in 10.0 mi West 9.2 mph 18.4 mph N/A   Scattered Clouds
4:34 PM 50.4 °F - 39.7 °F 67% 29.77 in 10.0 mi West 11.5 mph 17.3 mph N/A   Scattered Clouds
4:54 PM 50.0 °F - 39.6 °F 67% 29.77 in 10.0 mi WSW 9.2 mph - N/A   Scattered Clouds
5:14 PM 49.5 °F - 39.9 °F 70% 29.77 in 10.0 mi WSW 8.1 mph - N/A   Overcast
5:34 PM 49.1 °F - 40.8 °F 73% 29.78 in 10.0 mi WSW 9.2 mph - N/A   Overcast
5:55 PM 49.3 °F - 38.8 °F 67% 29.79 in 10.0 mi West 10.4 mph - N/A   Overcast
6:14 PM 49.1 °F - 38.1 °F 66% 29.79 in 10.0 mi WSW 8.1 mph - N/A   Mostly Cloudy
6:34 PM 48.2 °F - 37.9 °F 68% 29.80 in 10.0 mi WSW 8.1 mph - N/A   Mostly Cloudy
6:54 PM 47.3 °F - 38.5 °F 71% 29.81 in 10.0 mi WSW 5.8 mph - N/A   Scattered Clouds
7:14 PM 46.4 °F 43.5 °F 38.8 °F 75% 29.81 in 10.0 mi WSW 5.8 mph - N/A   Scattered Clouds
7:34 PM 45.7 °F 42.0 °F 39.2 °F 78% 29.82 in 10.0 mi SW 6.9 mph - N/A   Clear
7:55 PM 45.1 °F 42.0 °F 39.6 °F 81% 29.83 in 10.0 mi SW 5.8 mph - N/A   Clear
8:14 PM 44.8 °F 41.0 °F 40.1 °F 84% 29.83 in 10.0 mi SW 6.9 mph - N/A   Clear
8:35 PM 44.6 °F 42.2 °F 40.1 °F 84% 29.83 in 10.0 mi SW 4.6 mph - N/A   Scattered Clouds
8:54 PM 44.6 °F 40.7 °F 40.3 °F 85% 29.85 in 10.0 mi WSW 6.9 mph - N/A   Mostly Cloudy
9:15 PM 45.5 °F 40.3 °F 39.0 °F 78% 29.85 in 10.0 mi WSW 10.4 mph 17.3 mph N/A   Overcast
9:34 PM 45.5 °F 42.5 °F 38.3 °F 76% 29.85 in 10.0 mi WSW 5.8 mph - N/A   Overcast
9:55 PM 45.5 °F 39.9 °F 37.9 °F 75% 29.85 in 10.0 mi WSW 11.5 mph 19.6 mph N/A Rain Light Rain
10:14 PM 46.0 °F 41.9 °F 37.4 °F 72% 29.85 in 10.0 mi West 8.1 mph 17.3 mph N/A Rain Light Rain
10:35 PM 46.4 °F 41.5 °F 37.4 °F 71% 29.86 in 10.0 mi West 10.4 mph 18.4 mph N/A Rain Light Rain
10:54 PM 45.5 °F 42.5 °F 37.6 °F 74% 29.86 in 10.0 mi West 5.8 mph - N/A   Mostly Cloudy
11:15 PM 44.1 °F 40.8 °F 37.8 °F 78% 29.87 in 10.0 mi SW 5.8 mph - N/A   Clear
11:35 PM 43.5 °F 40.9 °F 37.8 °F 80% 29.87 in 10.0 mi SW 4.6 mph - N/A   Scattered Clouds
11:54 PM 43.0 °F 40.3 °F 38.5 °F 84% 29.87 in 10.0 mi SW 4.6 mph - N/A   Mostly Cloudy